Location: LDNL
(36.4545°S, 141.6685°E)
Time: 10:38:21
(UTC+10:00)

A-11 Canister half - Pass Details

Date: 14 August 2022
Orbit: 1524 x 1684 km, 47.3° (Epoch: 26 September)

Event Time Altitude Azimuth Distance (km) Brightness Sun altitude
Rises 16:22:30 0° 317° (NW) 4,727 13.1 16.7°
Reaches altitude 10° 16:25:36 10° 320° (NW) 3,731 12.8 16.2°
Maximum altitude 16:34:54 69° 40° (NE) 1,627 9.4 14.6°
Drops below altitude 10° 16:44:09 10° 121° (ESE) 3,710 10.4 13.0°
Sets 16:47:12 0° 122° (ESE) 4,700 10.9 12.4°
